sat.trackr.live / text

‹ back to catalog

STARLINK-36586

NORAD 67548 · 2026-014S

PAYLOAD ACTIVE UNKNOWN

§ Identity

Operator
Country
US
Launch date
2026-01-22
Launch site
AFWTR
Launch vehicle
Mass (kg)
RCS (m²)

Purposes: comms

External: N2YO · Heavens-Above · Gunter

§ Orbital elements

Epoch: 2026-09-19T22:07:12.829728Z

Period
93.91 min
Inclination
97.2844°
Eccentricity
0.0001785
Mean motion
15.33454669 rev/d
Perigee alt
464.3 km
Apogee alt
466.7 km
Semi-major
6,843.7 km
B*
5.9480e-4
RAAN
148.3593°
Arg perigee
89.8859°
Mean anomaly
270.2589°
Rev number
3,855

§ Raw data

STARLINK-365861 67548U 26014S   26262.92167627  .00019182  00000+0  59480-3 0  99902 67548  97.2844 148.3593 0001785  89.8859 270.2589 15.33454669 38557

JSON: /api/v1/satellites/67548 · /tle

For live sub-satellite position, see the globe view (requires WebGL).

§ Visibility from observer

Set your observer location to see the next 7 days of passes ≥ 10°. The values pass through the URL so the page stays shareable.

No JS? Fill the form by hand. The geolocation button needs JavaScript.